TimeEDT,TemperatureF,Dew PointF,Humidity,Sea Level PressureIn,VisibilityMPH,Wind Direction,Wind SpeedMPH,Gust SpeedMPH,PrecipitationIn,Events,Conditions,WindDirDegrees,DateUTC
12:54 AM,51.1,41.0,68,30.10,10.0,South,5.8,-,N/A,,Clear,170,2012-09-25 04:54:00
1:54 AM,51.1,42.1,71,30.09,10.0,SSE,4.6,-,N/A,,Mostly Cloudy,160,2012-09-25 05:54:00
2:54 AM,51.1,43.0,74,30.09,10.0,South,6.9,-,N/A,,Mostly Cloudy,170,2012-09-25 06:54:00
3:54 AM,53.1,45.0,74,30.09,10.0,South,6.9,-,N/A,,Overcast,170,2012-09-25 07:54:00
4:54 AM,54.0,45.0,72,30.08,10.0,South,6.9,-,N/A,,Overcast,180,2012-09-25 08:54:00
5:54 AM,55.9,46.0,69,30.07,10.0,South,8.1,-,N/A,,Overcast,170,2012-09-25 09:54:00
6:54 AM,55.9,45.0,67,30.06,10.0,South,6.9,-,N/A,,Mostly Cloudy,170,2012-09-25 10:54:00
7:54 AM,57.9,46.0,65,30.08,10.0,South,6.9,-,N/A,,Mostly Cloudy,180,2012-09-25 11:54:00
8:54 AM,59.0,46.9,64,30.09,10.0,South,8.1,-,N/A,,Overcast,180,2012-09-25 12:54:00
9:54 AM,57.9,46.9,67,30.08,10.0,South,9.2,-,0.00,Rain,Light Rain,170,2012-09-25 13:54:00
10:14 AM,57.2,48.2,72,30.10,10.0,South,9.2,-,0.01,Rain-Thunderstorm,Light Thunderstorms and Rain,190,2012-09-25 14:14:00
10:30 AM,55.4,50.0,82,30.15,1.8,WSW,18.4,26.5,0.16,Rain-Thunderstorm,Heavy Thunderstorms and Rain,240,2012-09-25 14:30:00
10:41 AM,53.6,51.8,94,30.14,3.0,SW,13.8,31.1,0.30,Rain-Thunderstorm,Heavy Thunderstorms and Rain,230,2012-09-25 14:41:00
10:54 AM,54.0,52.0,93,30.14,5.0,SSW,13.8,-,0.37,Rain-Thunderstorm,Thunderstorms and Rain,210,2012-09-25 14:54:00
11:54 AM,54.0,53.1,97,30.14,5.0,South,11.5,-,0.32,Rain-Thunderstorm,Heavy Thunderstorms and Rain,190,2012-09-25 15:54:00
12:21 PM,55.4,53.6,94,30.14,5.0,South,16.1,-,0.10,Rain-Thunderstorm,Thunderstorms and Rain,190,2012-09-25 16:21:00
12:54 PM,55.9,55.9,100,30.13,4.0,South,13.8,19.6,0.24,Rain-Thunderstorm,Thunderstorms and Rain,190,2012-09-25 16:54:00
1:54 PM,55.9,55.0,97,30.08,10.0,South,13.8,-,0.05,,Partly Cloudy,180,2012-09-25 17:54:00
2:54 PM,59.0,55.4,88,30.06,10.0,South,12.7,21.9,N/A,,Partly Cloudy,170,2012-09-25 18:54:00
3:54 PM,64.0,57.9,80,30.03,10.0,South,10.4,-,N/A,,Overcast,170,2012-09-25 19:54:00
4:54 PM,66.9,57.9,73,29.99,10.0,South,15.0,21.9,N/A,,Clear,180,2012-09-25 20:54:00
5:54 PM,69.1,60.1,73,30.00,10.0,South,15.0,-,N/A,,Clear,190,2012-09-25 21:54:00
6:54 PM,68.0,59.0,73,30.02,10.0,SSW,12.7,24.2,N/A,,Clear,200,2012-09-25 22:54:00
7:54 PM,64.4,57.2,77,30.04,10.0,Calm,Calm,-,N/A,,Partly Cloudy,0,2012-09-25 23:54:00
8:54 PM,63.0,57.9,84,30.04,10.0,SE,3.5,-,N/A,,Clear,140,2012-09-26 00:54:00
9:54 PM,62.1,57.9,86,30.03,10.0,SSE,9.2,-,N/A,,Partly Cloudy,160,2012-09-26 01:54:00
10:54 PM,62.1,57.9,86,30.04,10.0,South,6.9,-,N/A,,Clear,180,2012-09-26 02:54:00
11:54 PM,64.0,57.9,80,30.04,10.0,South,12.7,-,N/A,,Clear,180,2012-09-26 03:54:00